When you browse on this site, cookies collect data to enhance your experience and personalize the content and advertising you see.
Visit our Privacy Policy to learn more. By continuing to use the site, you agree to this use of cookies and data.
  • In Deutschland
  • Länderverzeichnis
  • Für 7 Tage
  • Wassertemperatur
  • Satellitenkarten
  • Wetterkarte
  • Widgets
  • user-avatar
    Anmelden

    Stündliche Wetter Bogorodskoe

    Heute, 19 November, Montag

    Zeit Temperatur Niederschläge Wind Luftdruck Luftfeuchtigkeit
    00:00 0°C° 0 mm 1 m/S 759 mmHg 71%
    01:00 0°C° 0 mm 1 m/S 759 mmHg 70%
    02:00 0°C° 0 mm 1 m/S 759 mmHg 68%
    03:00 -1°C° 0 mm 1 m/S 759 mmHg 62%
    04:00 -1°C° 0 mm 1 m/S 759 mmHg 61%
    05:00 -1°C° 0 mm 1 m/S 759 mmHg 60%
    06:00 -1°C° 0 mm 1 m/S 759 mmHg 60%
    07:00 0°C° 0 mm 1 m/S 759 mmHg 58%
    08:00 -1°C° 0 mm 2 m/S 759 mmHg 56%
    09:00 +1°C° 0 mm 2 m/S 759 mmHg 54%
    10:00 +1°C° 0 mm 3 m/S 759 mmHg 53%
    11:00 +2°C° 0 mm 3 m/S 759 mmHg 51%
    12:00 +3°C° 0 mm 3 m/S 759 mmHg 50%
    13:00 +3°C° 0 mm 3 m/S 759 mmHg 52%
    14:00 +3°C° 0 mm 3 m/S 759 mmHg 53%
    15:00 +3°C° 0 mm 3 m/S 759 mmHg 55%
    16:00 +2°C° 0 mm 3 m/S 758 mmHg 59%
    17:00 +1°C° 0 mm 3 m/S 758 mmHg 63%
    18:00 0°C° 0 mm 3 m/S 758 mmHg 67%
    19:00 0°C° 0 mm 3 m/S 758 mmHg 69%
    20:00 0°C° 0 mm 3 m/S 758 mmHg 70%
    21:00 0°C° 0 mm 3 m/S 758 mmHg 72%
    22:00 -1°C° 0 mm 4 m/S 757 mmHg 74%
    23:00 -1°C° 0 mm 4 m/S 757 mmHg 75%

    Morgen, 20 November, Dienstag

    Zeit Temperatur Niederschläge Wind Luftdruck Luftfeuchtigkeit
    00:00 0°C° 0 mm 4 m/S 757 mmHg 77%
    01:00 0°C° 0 mm 4 m/S 757 mmHg 79%
    02:00 +1°C° 0 mm 3 m/S 756 mmHg 82%
    03:00 +1°C° 0 mm 3 m/S 756 mmHg 84%
    04:00 +1°C° 0.1 mm 3 m/S 756 mmHg 86%
    05:00 +1°C° 0.1 mm 3 m/S 756 mmHg 87%
    06:00 +1°C° 0.1 mm 3 m/S 755 mmHg 89%
    07:00 0°C° 0.3 mm 4 m/S 755 mmHg 89%
    08:00 0°C° 0.3 mm 4 m/S 755 mmHg 88%
    09:00 +1°C° 0.3 mm 4 m/S 755 mmHg 88%
    10:00 +1°C° 0.2 mm 4 m/S 755 mmHg 87%
    11:00 +1°C° 0.2 mm 4 m/S 754 mmHg 86%
    12:00 +3°C° 0.2 mm 4 m/S 754 mmHg 85%
    13:00 +3°C° 0.6 mm 4 m/S 753 mmHg 86%
    14:00 +3°C° 0.6 mm 4 m/S 753 mmHg 87%
    15:00 +3°C° 0.6 mm 4 m/S 753 mmHg 88%
    16:00 +3°C° 0.3 mm 4 m/S 753 mmHg 89%
    17:00 +3°C° 0.3 mm 4 m/S 752 mmHg 90%
    18:00 +3°C° 0.3 mm 4 m/S 752 mmHg 91%
    19:00 +3°C° 0.2 mm 4 m/S 752 mmHg 92%
    20:00 +3°C° 0.2 mm 3 m/S 752 mmHg 93%
    21:00 +3°C° 0.2 mm 3 m/S 751 mmHg 94%
    22:00 +3°C° 1.3 mm 3 m/S 751 mmHg 94%
    23:00 +3°C° 1.3 mm 4 m/S 752 mmHg 94%

    übermorgen, 21 November, Mittwoch

    Zeit Temperatur Niederschläge Wind Luftdruck Luftfeuchtigkeit
    00:00 +3°C° 1.3 mm 4 m/S 752 mmHg 94%
    01:00 +3°C° 0.1 mm 4 m/S 752 mmHg 93%
    02:00 +1°C° 0.1 mm 4 m/S 752 mmHg 92%
    03:00 +1°C° 0.1 mm 5 m/S 752 mmHg 91%
    04:00 +1°C° 0 mm 5 m/S 753 mmHg 89%
    05:00 +1°C° 0 mm 5 m/S 753 mmHg 87%
    06:00 0°C° 0 mm 4 m/S 753 mmHg 85%
    07:00 0°C° 0 mm 4 m/S 753 mmHg 81%
    08:00 0°C° 0 mm 4 m/S 754 mmHg 78%
    09:00 +1°C° 0 mm 3 m/S 754 mmHg 75%
    10:00 +2°C° 0 mm 3 m/S 754 mmHg 71%
    11:00 +3°C° 0 mm 3 m/S 754 mmHg 67%
    12:00 +3°C° 0 mm 3 m/S 754 mmHg 63%
    13:00 +3°C° 0 mm 3 m/S 754 mmHg 61%
    14:00 +3°C° 0 mm 3 m/S 753 mmHg 60%
    15:00 +5°C° 0 mm 2 m/S 753 mmHg 59%
    16:00 +4°C° 0 mm 2 m/S 753 mmHg 61%
    17:00 +3°C° 0 mm 2 m/S 753 mmHg 64%
    18:00 +2°C° 0 mm 2 m/S 753 mmHg 67%
    19:00 +2°C° 0 mm 2 m/S 753 mmHg 67%
    20:00 +1°C° 0 mm 2 m/S 753 mmHg 68%
    21:00 0°C° 0 mm 3 m/S 754 mmHg 68%
    22:00 -1°C° 0 mm 2 m/S 753 mmHg 70%
    23:00 -1°C° 0 mm 2 m/S 753 mmHg 72%

    22 November, Donnerstag

    Zeit Temperatur Niederschläge Wind Luftdruck Luftfeuchtigkeit
    00:00 -1°C° 0 mm 2 m/S 753 mmHg 74%
    01:00 -2°C° 0 mm 2 m/S 753 mmHg 75%
    02:00 -2°C° 0 mm 2 m/S 753 mmHg 77%
    03:00 -2°C° 0 mm 2 m/S 753 mmHg 78%
    04:00 -2°C° 0 mm 2 m/S 753 mmHg 79%
    05:00 -2°C° 0 mm 2 m/S 753 mmHg 81%
    06:00 -2°C° 0 mm 2 m/S 753 mmHg 82%
    07:00 -2°C° 0 mm 2 m/S 754 mmHg 79%
    08:00 -2°C° 0 mm 2 m/S 754 mmHg 77%
    09:00 -1°C° 0 mm 3 m/S 754 mmHg 74%
    10:00 -1°C° 0 mm 3 m/S 754 mmHg 69%
    11:00 0°C° 0 mm 3 m/S 754 mmHg 65%
    12:00 +1°C° 0 mm 3 m/S 754 mmHg 60%
    13:00 +1°C° 0 mm 3 m/S 753 mmHg 60%
    14:00 +1°C° 0 mm 3 m/S 753 mmHg 60%
    15:00 +1°C° 0 mm 3 m/S 753 mmHg 61%
    16:00 0°C° 0 mm 3 m/S 753 mmHg 66%
    17:00 -1°C° 0 mm 3 m/S 753 mmHg 70%
    18:00 -2°C° 0 mm 2 m/S 753 mmHg 75%
    19:00 -2°C° 0 mm 2 m/S 753 mmHg 77%
    20:00 -2°C° 0 mm 3 m/S 753 mmHg 79%
    21:00 -4°C° 0 mm 3 m/S 754 mmHg 81%
    22:00 -4°C° 0 mm 3 m/S 753 mmHg 81%
    23:00 -4°C° 0 mm 4 m/S 753 mmHg 81%

    23 November, Freitag

    Zeit Temperatur Niederschläge Wind Luftdruck Luftfeuchtigkeit
    00:00 -4°C° 0 mm 4 m/S 753 mmHg 81%
    01:00 -5°C° 0 mm 5 m/S 753 mmHg 78%
    02:00 -5°C° 0 mm 5 m/S 753 mmHg 76%
    03:00 -5°C° 0 mm 6 m/S 753 mmHg 73%
    04:00 -5°C° 0 mm 6 m/S 753 mmHg 73%
    05:00 -5°C° 0 mm 6 m/S 754 mmHg 73%
    06:00 -5°C° 0 mm 6 m/S 754 mmHg 73%
    07:00 -5°C° 0 mm 6 m/S 755 mmHg 73%
    08:00 -5°C° 0 mm 6 m/S 755 mmHg 72%
    09:00 -5°C° 0 mm 6 m/S 756 mmHg 72%
    10:00 -4°C° 0 mm 6 m/S 756 mmHg 69%
    11:00 -3°C° 0 mm 6 m/S 756 mmHg 67%
    12:00 -2°C° 0 mm 6 m/S 757 mmHg 65%
    13:00 -1°C° 0 mm 5 m/S 757 mmHg 65%
    14:00 -1°C° 0 mm 5 m/S 758 mmHg 66%
    15:00 -1°C° 0 mm 5 m/S 758 mmHg 66%
    16:00 -1°C° 0 mm 4 m/S 759 mmHg 71%
    17:00 -1°C° 0 mm 3 m/S 760 mmHg 75%
    18:00 -2°C° 0 mm 3 m/S 760 mmHg 79%
    19:00 -2°C° 0 mm 3 m/S 761 mmHg 80%
    20:00 -2°C° 0 mm 2 m/S 762 mmHg 80%
    21:00 -3°C° 0 mm 2 m/S 763 mmHg 81%
    22:00 -3°C° 0 mm 2 m/S 763 mmHg 79%
    23:00 -3°C° 0 mm 2 m/S 763 mmHg 78%

    24 November, Samstag

    Zeit Temperatur Niederschläge Wind Luftdruck Luftfeuchtigkeit
    00:00 -4°C° 0 mm 2 m/S 764 mmHg 76%
    01:00 -4°C° 0 mm 2 m/S 764 mmHg 73%
    02:00 -4°C° 0 mm 2 m/S 764 mmHg 71%
    03:00 -4°C° 0 mm 2 m/S 764 mmHg 68%
    04:00 -4°C° 0 mm 2 m/S 765 mmHg 67%
    05:00 -4°C° 0 mm 2 m/S 765 mmHg 66%
    06:00 -4°C° 0 mm 2 m/S 765 mmHg 64%
    07:00 -4°C° 0 mm 2 m/S 765 mmHg 62%
    08:00 -4°C° 0 mm 3 m/S 766 mmHg 59%
    09:00 -4°C° 0 mm 3 m/S 766 mmHg 56%
    10:00 -2°C° 0 mm 3 m/S 766 mmHg 54%
    11:00 -1°C° 0 mm 3 m/S 765 mmHg 51%
    12:00 0°C° 0 mm 3 m/S 765 mmHg 48%
    13:00 0°C° 0 mm 3 m/S 765 mmHg 49%
    14:00 +1°C° 0 mm 3 m/S 764 mmHg 50%
    15:00 +1°C° 0 mm 3 m/S 764 mmHg 51%
    16:00 0°C° 0 mm 3 m/S 764 mmHg 56%
    17:00 -1°C° 0 mm 3 m/S 764 mmHg 60%
    18:00 -4°C° 0 mm 3 m/S 763 mmHg 65%
    19:00 -4°C° 0 mm 3 m/S 763 mmHg 66%
    20:00 -4°C° 0 mm 3 m/S 763 mmHg 67%
    21:00 -4°C° 0 mm 3 m/S 763 mmHg 68%
    22:00 -4°C° 0 mm 3 m/S 762 mmHg 69%
    23:00 -4°C° 0 mm 3 m/S 762 mmHg 69%
    Mehr zeigen